Home   Weather   Zweibrücken   Past weeks

Flag for Germany Past Weather in Zweibrücken, Rhineland-Palatinate, Germany — Yesterday and Last 2 Weeks

54 °F

Light rain. Fog.

Feels Like: 54 °F
Forecast: 47 / 57 °F
Wind: 1 mph from North

Location: Saarbruecken / Ensheim

Current Time: Oct 24, 2016 at 8:23:04 PM

Latest Report: Oct 24, 2016 at 7:50 PM

Visibility: 1 mi

Pressure: 29.92 "Hg

Humidity: 100%

Dew Point: 54 °F

Location of ZweibrückenLocation

Past Weather in Zweibrücken — Graph


Zweibrücken Temperature Yesterday

Maximum temperature yesterday: 52 °F (at 1:50 PM)
Minimum temperature yesterday: 37 °F (at 3:20 AM)
Average temperature yesterday: 44 °F

High & Low Weather Summary for the Past Weeks

High64 °F (Oct 16, 2:20 PM)100% (Oct 10, 1:20 AM)30.27 "Hg (Oct 10, 1:20 AM)
Low36 °F (Oct 21, 10:50 PM)51% (Oct 11, 3:50 PM)29.65 "Hg (Oct 14, 4:50 PM)
Average47 °F87%30.01 "Hg
* Reported Oct 9 7:20 PM — Oct 24 7:20 PM, Zweibrücken, Weather by CustomWeather, © 2016

Note: Actual official high and low records may vary slightly from our data, if they occured in-between our weather recording intervals... More about our weather records


Zweibrücken Weather History for the Previous 24 Hours

Scroll right to see more
Time TempWeatherWind HumidityBarometerVisibility
7:20 PM
Mon, Oct 24
54 °FLight rain. Fog.5 mph100%29.95 "Hg1 mi
6:50 PM54 °FLight rain. Fog.1 mph94%29.92 "Hg1 mi
6:20 PM54 °FRain. Fog.1 mph100%29.89 "Hg1 mi
5:50 PM54 °FLight rain. Broken clouds.2 mph94%29.92 "Hg1 mi
5:20 PM54 °FLight rain. Partly sunny.1 mph94%29.89 "Hg1 mi
4:50 PM54 °FLight rain. Partly sunny.5 mph94%29.89 "Hg1 mi
4:20 PM54 °FCool.2 mph94%29.89 "Hg1 mi
3:50 PM54 °FCool.2 mph94%29.89 "Hg2 mi
3:20 PM54 °FCool.2 mph94%29.89 "Hg2 mi
2:50 PM52 °FCool.3 mph100%29.86 "Hg2 mi
2:20 PM52 °FCool.5 mph100%29.86 "Hg2 mi
1:50 PM52 °FFog.3 mph100%29.86 "Hg2 mi
1:20 PM52 °FLight rain. Fog.5 mph94%29.86 "Hg1 mi
12:50 PM52 °FLight rain. Fog.5 mph100%29.86 "Hg2 mi
12:20 PM52 °FLight rain. Fog.6 mph94%29.86 "Hg2 mi
11:50 AM50 °FRain. Fog.7 mph100%29.86 "Hg2 mi
11:20 AM50 °FLight rain. Fog.8 mph100%29.86 "Hg2 mi
10:50 AM50 °FLight rain. Fog.8 mph94%29.86 "Hg2 mi
10:20 AM50 °FRain. Fog.6 mph94%29.89 "Hg1 mi
9:50 AM50 °FRain. Fog.6 mph94%29.89 "Hg2 mi
9:20 AM48 °FLight rain. Fog.6 mph100%29.86 "Hg2 mi
8:50 AM48 °FLight rain. Fog.7 mph100%29.86 "Hg2 mi
8:20 AM48 °FFog.7 mph94%29.86 "Hg2 mi
7:50 AM48 °FFog.6 mph100%29.86 "Hg2 mi
7:20 AM48 °FFog.3 mph100%29.86 "Hg3 mi
6:50 AM48 °FFog.6 mph100%29.86 "Hg3 mi
6:20 AM48 °FLight rain. Fog.5 mph94%29.86 "Hg3 mi
5:50 AM48 °FFog.3 mph94%29.86 "Hg3 mi
5:20 AM46 °FFog.7 mph100%29.86 "Hg3 mi
4:50 AM46 °FFog.7 mph100%29.86 "Hg1 mi
4:20 AM46 °FFog.7 mph100%29.86 "Hg1 mi
3:50 AM46 °FLight rain. Passing clouds.7 mph100%29.86 "Hg1 mi
3:20 AM46 °FLow clouds.6 mph93%29.89 "Hg2 mi
2:50 AM46 °FLow clouds.6 mph93%29.89 "Hg2 mi
2:20 AM46 °FLow clouds.6 mph93%29.86 "Hg2 mi
1:50 AM46 °FPassing clouds.6 mph93%29.86 "Hg2 mi
1:20 AM46 °FPassing clouds.7 mph93%29.86 "Hg3 mi
12:50 AM46 °FPartly cloudy.7 mph93%29.86 "Hg1 mi
12:20 AM45 °FPassing clouds.6 mph100%29.86 "Hg2 mi
11:50 PM
Sun, Oct 23
45 °FPassing clouds.6 mph100%29.86 "Hg2 mi
11:20 PM45 °FPassing clouds.8 mph100%29.83 "Hg2 mi
10:50 PM45 °FLight rain. Fog.7 mph100%29.86 "Hg2 mi
10:20 PM45 °FLight rain. Fog.7 mph100%29.86 "Hg2 mi
9:50 PM45 °FLight rain. Fog.7 mph100%29.83 "Hg2 mi
9:20 PM45 °FLight rain. Fog.6 mph100%29.83 "Hg3 mi
8:50 PM46 °FLight rain. Passing clouds.6 mph93%29.83 "Hg4 mi
8:20 PM46 °FLight rain. Passing clouds.6 mph93%29.83 "Hg5 mi
Weather by CustomWeather, © 2016

See weather overviewHow to use our weather pages